period_start,C,m1,H,J0,J1,J2,J3,J4,J5,JA,JB,JC,JD,JJ,JK,JN,#
2014-09-18 00:04:11,0.01,0.28,0.00,19.95,26.92,28.84,9.74,40.98,1009.29,2039.93,3360.00,3259.91,3507.99,500.04,498.26,26.54,0000 0000 0000 0000 000000
2014-09-18 00:09:12,0.00,0.28,0.00,20.05,26.90,28.73,9.64,40.91,1009.29,2039.92,3359.99,3259.73,3507.97,499.74,497.84,26.58,0000 0000 0000 0000 000000
2014-09-18 00:14:13,0.02,0.28,0.00,20.04,26.90,28.71,9.70,40.96,1009.29,2039.93,3359.90,3259.47,3507.80,499.80,498.02,26.62,0000 0000 0000 0000 000000
2014-09-18 00:19:14,0.03,0.28,0.00,20.06,26.89,28.82,9.65,40.91,1009.28,2039.97,3359.44,3259.25,3507.20,500.14,498.29,26.66,0000 0000 0000 0000 000000
2014-09-18 00:24:15,0.01,0.28,0.00,19.96,26.87,28.75,9.70,40.89,1009.25,2039.97,3359.12,3259.29,3507.05,500.23,498.42,26.70,0000 0000 0000 0000 000000
2014-09-18 00:29:17,-0.00,0.28,0.00,19.92,26.87,28.70,9.73,41.04,1009.19,2039.97,3359.00,3259.10,3507.00,500.14,498.34,26.75,0000 0000 0000 0000 000000
2014-09-18 00:34:18,0.00,0.28,0.00,19.94,26.87,28.82,9.72,41.01,1009.15,2039.99,3359.00,3259.11,3507.00,500.17,498.25,26.79,0000 0000 0000 0000 000000
2014-09-18 00:39:19,0.00,0.28,0.00,19.79,26.85,28.79,9.72,41.07,1009.07,2039.99,3359.00,3259.04,3507.00,499.87,498.36,26.83,0000 0000 0000 0000 000000
2014-09-18 00:44:20,0.00,0.28,0.00,19.81,26.85,28.78,9.69,41.06,1009.03,2039.99,3358.98,3259.04,3506.97,499.59,497.94,26.87,0000 0000 0000 0000 000000
2014-09-18 00:49:21,0.00,0.28,0.00,19.91,26.85,28.90,9.65,41.23,1009.18,2039.99,3358.88,3259.01,3506.85,499.75,498.05,26.91,0000 0000 0000 0000 000000
2014-09-18 00:54:22,0.01,0.28,0.00,19.92,26.82,29.08,9.74,41.12,1009.16,2039.99,3358.49,3259.01,3506.48,500.37,498.67,26.96,0000 0000 0000 0000 000000
2014-09-18 00:59:23,0.01,0.28,0.00,19.91,26.82,29.15,9.77,41.17,1009.16,2039.99,3358.26,3259.01,3506.21,500.27,498.52,27.00,0000 0000 0000 0000 000000
2014-09-18 01:04:24,0.00,0.28,0.00,20.20,26.82,29.34,9.77,41.20,1009.01,2039.99,3358.09,3259.01,3506.05,500.36,498.19,27.04,0000 0000 0000 0000 000000
2014-09-18 01:09:26,0.00,0.28,0.00,20.65,26.80,29.46,9.69,40.97,1008.92,2039.99,3358.01,3259.01,3506.00,500.15,496.95,27.08,0000 0000 0000 0000 000000
2014-09-18 01:14:28,0.00,0.28,0.00,21.02,26.80,29.54,9.62,40.94,1008.93,2040.00,3358.00,3259.00,3506.00,499.67,495.87,27.12,0000 0000 0000 0000 000000
2014-09-18 01:19:29,0.00,0.28,0.00,21.20,26.80,29.63,9.58,40.83,1008.95,2040.00,3357.99,3259.00,3505.98,499.66,495.91,27.17,0000 0000 0000 0000 000000
2014-09-18 01:24:30,0.00,0.28,0.00,21.67,26.82,29.65,9.55,40.84,1008.86,2040.00,3357.98,3258.99,3505.84,499.68,494.87,27.21,0000 0000 0000 0000 000000
2014-09-18 01:29:31,0.01,0.28,0.00,21.79,26.84,29.68,9.58,40.77,1008.94,2040.00,3357.92,3258.95,3505.24,499.90,494.91,27.25,0000 0000 0000 0000 000000
2014-09-18 01:34:32,0.03,0.28,0.00,21.34,26.85,29.70,9.65,40.90,1009.00,2040.00,3357.48,3258.58,3505.02,499.93,495.51,27.29,0000 0000 0000 0000 000000
2014-09-18 01:39:33,0.01,0.28,0.00,20.67,26.87,29.88,9.66,41.02,1009.11,2040.00,3357.01,3258.05,3504.96,499.77,496.79,27.33,0000 0000 0000 0000 000000
2014-09-18 01:44:34,0.00,0.28,0.00,20.41,26.88,29.96,9.74,41.09,1009.03,2040.00,3356.99,3258.01,3504.70,500.04,497.37,27.38,0000 0000 0000 0000 000000
2014-09-18 01:49:35,0.02,0.28,0.00,20.16,26.90,29.70,9.67,40.93,1009.14,2039.99,3356.61,3258.00,3504.11,499.61,497.46,27.42,0000 0000 0000 0000 000000
2014-09-18 01:54:37,-0.00,0.28,0.00,20.37,26.90,29.71,9.67,40.88,1009.18,2039.98,3356.16,3258.00,3504.01,499.87,497.24,27.46,0000 0000 0000 0000 000000
2014-09-18 01:59:38,0.00,0.28,0.00,20.00,26.90,29.38,9.69,40.93,1009.02,2039.98,3356.04,3257.99,3504.00,500.05,497.86,27.50,0000 0000 0000 0000 000000
2014-09-18 02:04:39,0.00,0.28,0.00,20.50,26.90,29.68,9.78,40.97,1008.88,2039.98,3356.00,3257.99,3504.00,499.91,497.19,27.54,0000 0000 0000 0000 000000
2014-09-18 02:09:39,0.00,0.28,0.00,20.57,26.90,29.72,9.73,41.04,1008.92,2039.97,3355.99,3257.93,3503.83,500.31,497.28,27.58,0000 0000 0000 0000 000000
2014-09-18 02:14:40,0.01,0.29,0.00,20.86,26.90,29.76,9.71,40.73,1008.99,2039.97,3355.97,3257.82,3503.30,500.31,496.88,27.63,0000 0000 0000 0000 000000
2014-09-18 02:19:41,0.01,0.29,0.00,20.80,26.89,29.78,9.65,40.77,1009.03,2039.98,3355.81,3257.66,3503.07,499.89,496.55,27.67,0000 0000 0000 0000 000000
2014-09-18 02:24:42,-0.00,0.29,0.00,21.00,26.88,29.84,9.71,40.81,1009.14,2039.99,3355.85,3257.56,3503.03,500.15,496.60,27.71,0000 0000 0000 0000 000000
2014-09-18 02:29:43,0.03,0.29,0.00,20.92,26.89,29.93,9.73,40.73,1009.14,2039.98,3355.26,3257.20,3503.00,500.07,496.64,27.75,0000 0000 0000 0000 000000
2014-09-18 02:34:44,0.00,0.29,0.00,20.66,26.90,29.85,9.71,40.76,1009.05,2039.96,3355.05,3257.03,3503.00,500.10,497.08,27.79,0000 0000 0000 0000 000000
2014-09-18 02:39:45,-0.00,0.29,0.00,20.79,26.90,29.91,9.66,40.76,1009.05,2039.96,3355.01,3257.01,3502.89,500.18,496.73,27.84,0000 0000 0000 0000 000000
2014-09-18 02:44:46,0.00,0.29,0.00,20.90,26.90,29.99,9.63,40.73,1008.95,2039.98,3355.00,3257.00,3502.73,499.79,496.26,27.88,0000 0000 0000 0000 000000
2014-09-18 02:49:47,0.00,0.29,0.00,20.89,26.92,29.99,9.70,40.83,1008.95,2039.96,3355.00,3257.00,3502.42,499.95,496.35,27.92,0000 0000 0000 0000 000000
2014-09-18 02:54:49,0.00,0.29,0.00,21.27,26.92,30.03,9.64,40.78,1009.11,2039.94,3354.99,3257.00,3502.02,500.17,496.07,27.96,0000 0000 0000 0000 000000
2014-09-18 02:59:50,-0.00,0.29,0.00,21.61,26.95,29.91,9.56,40.64,1009.18,2039.94,3354.97,3256.97,3502.00,499.62,495.07,28.00,0000 0000 0000 0000 000000
2014-09-18 03:04:51,0.00,0.29,0.00,21.91,26.97,29.87,9.66,40.83,1009.23,2039.89,3354.87,3256.73,3502.00,500.30,495.15,28.05,0000 0000 0000 0000 000000
2014-09-18 03:09:53,-0.01,0.29,0.00,22.08,26.99,29.82,9.50,40.69,1009.25,2039.55,3354.24,3256.10,3501.73,500.10,494.78,28.09,0000 0000 0000 0000 000000
2014-09-18 03:14:53,-0.03,0.29,0.00,22.22,27.01,29.83,9.46,40.73,1009.28,2039.19,3354.02,3256.00,3501.16,499.84,494.15,28.13,0000 0000 0000 0000 000000
2014-09-18 03:19:55,-0.01,0.29,0.00,22.32,27.03,29.82,9.66,40.77,1009.19,2039.06,3354.00,3255.99,3501.00,499.67,493.96,28.17,0000 0000 0000 0000 000000
2014-09-18 03:24:56,0.00,0.29,0.00,22.32,27.06,29.81,9.62,40.86,1009.27,2039.02,3353.99,3255.98,3500.99,500.04,494.17,28.21,0000 0000 0000 0000 000000
2014-09-18 03:29:57,0.02,0.29,0.00,22.48,27.07,29.83,9.55,40.58,1009.25,2039.03,3353.64,3255.69,3500.70,500.17,494.24,28.25,0000 0000 0000 0000 000000
2014-09-18 03:34:58,0.03,0.29,0.00,22.55,27.09,29.83,9.55,40.81,1009.22,2039.00,3353.10,3255.14,3500.11,500.26,493.90,28.30,0000 0000 0000 0000 000000
2014-09-18 03:39:59,0.00,0.29,0.00,22.61,27.10,29.84,9.60,40.73,1009.20,2039.00,3353.00,3255.02,3500.00,500.15,493.72,28.34,0000 0000 0000 0000 000000
2014-09-18 03:45:00,0.00,0.29,0.00,22.65,27.12,29.86,9.53,40.70,1009.20,2039.00,3352.97,3255.00,3499.98,500.09,493.69,28.38,0000 0000 0000 0000 000000
2014-09-18 03:50:01,0.01,0.29,0.00,22.70,27.12,29.90,9.54,40.68,1009.05,2039.00,3352.76,3255.00,3499.69,499.70,493.16,28.42,0000 0000 0000 0000 000000
2014-09-18 03:55:02,0.02,0.29,0.00,22.74,27.12,29.93,9.49,40.70,1008.89,2039.00,3352.19,3254.98,3499.14,499.79,493.03,28.46,0000 0000 0000 0000 000000
2014-09-18 04:00:03,0.01,0.29,0.00,22.69,27.13,29.94,9.54,40.69,1008.88,2038.99,3352.01,3254.69,3499.01,499.74,493.12,28.51,0000 0000 0000 0000 000000
2014-09-18 04:05:04,0.01,0.29,0.00,22.76,27.13,29.99,9.57,40.61,1008.98,2038.99,3352.00,3254.36,3499.00,499.79,493.12,28.55,0000 0000 0000 0000 000000
2014-09-18 04:10:05,0.00,0.29,0.00,22.79,27.12,29.95,9.56,40.72,1009.08,2038.99,3352.00,3254.48,3498.99,500.38,493.78,28.59,0000 0000 0000 0000 000000
2014-09-18 04:15:07,0.00,0.29,0.00,22.83,27.12,29.95,9.52,40.62,1009.05,2038.99,3352.00,3254.30,3498.99,499.42,492.60,28.63,0000 0000 0000 0000 000000
2014-09-18 04:20:08,0.00,0.29,0.00,22.81,27.12,29.94,9.53,40.75,1009.25,2038.98,3351.99,3254.18,3498.97,500.10,493.65,28.67,0000 0000 0000 0000 000000
2014-09-18 04:25:09,0.00,0.29,0.00,22.81,27.11,29.95,9.55,40.77,1009.29,2038.99,3351.96,3254.05,3498.88,499.95,493.41,28.72,0000 0000 0000 0000 000000
2014-09-18 04:30:10,-0.00,0.29,0.00,22.78,27.10,29.93,9.57,40.48,1009.29,2038.99,3351.97,3254.11,3498.80,500.21,493.64,28.76,0000 0000 0000 0000 000000
2014-09-18 04:35:11,0.00,0.29,0.00,22.79,27.10,29.91,9.59,40.57,1009.30,2038.99,3351.99,3254.07,3498.80,500.26,493.62,28.80,0000 0000 0000 0000 000000
2014-09-18 04:40:12,-0.00,0.29,0.00,22.79,27.08,29.89,9.53,40.59,1009.31,2038.99,3351.98,3254.04,3498.80,499.91,493.52,28.84,0000 0000 0000 0000 000000
2014-09-18 04:45:13,0.00,0.29,0.00,22.78,27.07,29.89,9.56,40.73,1009.31,2038.99,3351.96,3254.08,3498.62,499.98,493.66,28.88,0000 0000 0000 0000 000000
2014-09-18 04:50:14,0.01,0.29,0.00,22.83,27.07,29.90,9.56,40.60,1009.30,2038.99,3351.92,3254.06,3498.34,500.11,493.71,28.92,0000 0000 0000 0000 000000
2014-09-18 04:55:15,0.00,0.29,0.00,22.84,27.05,29.87,9.56,40.61,1009.32,2038.99,3351.86,3254.03,3498.12,499.91,493.24,28.97,0000 0000 0000 0000 000000
2014-09-18 05:00:17,-0.00,0.29,0.00,22.85,27.05,29.89,9.60,40.62,1009.34,2038.99,3351.78,3254.04,3498.16,500.39,493.67,29.01,0000 0000 0000 0000 000000
2014-09-18 05:05:18,0.00,0.29,0.00,22.86,27.04,29.87,9.55,40.65,1009.36,2039.00,3351.85,3254.10,3498.23,500.38,493.71,29.05,0000 0000 0000 0000 000000
2014-09-18 05:10:19,-0.00,0.29,0.00,22.84,27.02,29.85,9.49,40.64,1009.52,2039.00,3351.87,3254.23,3498.28,500.27,493.62,29.09,0000 0000 0000 0000 000000
2014-09-18 05:15:20,-0.01,0.29,0.00,22.83,27.02,29.84,9.57,40.35,1009.60,2039.02,3351.85,3254.40,3498.27,500.21,493.75,29.13,0000 0000 0000 0000 000000
2014-09-18 05:20:21,0.00,0.29,0.00,22.83,27.00,29.82,9.57,40.71,1009.36,2039.06,3351.80,3254.42,3498.21,499.94,493.48,29.18,0000 0000 0000 0000 000000
2014-09-18 05:25:22,0.01,0.29,0.00,22.85,27.00,29.79,9.55,40.69,1009.31,2039.04,3351.39,3254.41,3498.07,499.94,493.27,29.22,0000 0000 0000 0000 000000
2014-09-18 05:30:23,0.00,0.29,0.00,22.86,26.98,29.80,9.53,40.83,1009.29,2039.12,3351.31,3254.47,3498.03,499.82,493.33,29.26,0000 0000 0000 0000 000000
2014-09-18 05:35:25,0.00,0.29,0.00,22.89,26.97,29.72,9.54,40.89,1009.33,2039.13,3351.29,3254.60,3498.03,500.07,493.52,29.30,0000 0000 0000 0000 000000
2014-09-18 05:40:26,0.04,0.29,0.00,22.93,26.96,29.68,9.51,40.69,1009.38,2039.40,3351.15,3254.69,3498.03,499.88,493.14,29.34,0000 0000 0000 0000 000000
2014-09-18 05:45:27,0.01,0.30,0.00,22.95,26.95,29.69,9.56,40.61,1009.33,2039.76,3351.22,3254.84,3498.04,500.55,493.42,29.39,0000 0000 0000 0000 000000
2014-09-18 05:50:28,0.01,0.30,0.00,23.00,26.94,29.66,9.51,40.66,1009.30,2039.81,3351.26,3254.90,3498.05,499.98,493.07,29.43,0000 0000 0000 0000 000000
2014-09-18 05:55:29,0.01,0.30,0.00,23.02,26.92,29.64,9.49,40.52,1009.29,2039.84,3351.09,3254.87,3498.02,499.83,493.04,29.47,0000 0000 0000 0000 000000
2014-09-18 06:00:31,0.01,0.30,0.00,23.00,26.92,29.68,9.54,40.52,1009.30,2039.93,3351.07,3254.90,3498.01,500.27,493.45,29.51,0000 0000 0000 0000 000000
2014-09-18 06:05:32,-0.00,0.30,0.00,22.98,26.90,29.69,9.53,40.67,1009.30,2039.95,3351.15,3254.95,3498.02,499.95,493.02,29.55,0000 0000 0000 0000 000000
2014-09-18 06:10:34,-0.00,0.30,0.00,22.94,26.90,29.72,9.58,40.60,1009.31,2039.97,3351.34,3254.97,3498.03,500.17,493.29,29.59,0000 0000 0000 0000 000000
2014-09-18 06:15:35,0.00,0.30,0.00,22.94,26.89,29.69,9.50,40.59,1009.30,2039.99,3351.45,3254.99,3498.07,499.76,493.10,29.64,0000 0000 0000 0000 000000
2014-09-18 06:20:36,0.00,0.30,0.00,22.95,26.87,29.69,9.55,40.63,1009.31,2039.99,3351.20,3254.99,3498.04,499.92,493.22,29.68,0000 0000 0000 0000 000000
2014-09-18 06:25:37,0.00,0.30,0.00,22.95,26.87,29.65,9.52,40.62,1009.32,2039.99,3351.24,3254.98,3498.02,499.62,492.85,29.72,0000 0000 0000 0000 000000
2014-09-18 06:30:38,0.00,0.30,0.00,22.97,26.87,29.64,9.55,40.64,1009.33,2039.99,3351.06,3254.98,3498.02,500.17,493.72,29.76,0000 0000 0000 0000 000000
2014-09-18 06:35:39,0.00,0.30,0.00,22.99,26.85,29.60,9.58,40.77,1009.33,2039.99,3351.04,3254.98,3498.00,499.82,492.87,29.80,0000 0000 0000 0000 000000
2014-09-18 06:40:39,0.00,0.30,0.00,22.99,26.85,29.58,9.46,40.64,1009.32,2039.99,3351.03,3254.98,3498.00,499.73,493.07,29.85,0000 0000 0000 0000 000000
2014-09-18 06:45:41,0.00,0.30,0.00,23.01,26.84,29.62,9.47,40.73,1009.33,2039.99,3351.02,3254.98,3498.00,499.77,492.93,29.89,0000 0000 0000 0000 000000
2014-09-18 06:50:41,0.00,0.30,0.00,23.00,26.82,29.58,9.57,40.71,1009.42,2039.99,3351.01,3254.99,3498.00,500.09,493.33,29.93,0000 0000 0000 0000 000000
2014-09-18 06:55:42,0.00,0.30,0.00,22.96,26.82,29.60,9.53,40.71,1009.55,2039.99,3351.00,3254.95,3497.98,500.40,493.68,29.97,0000 0000 0000 0000 000000
2014-09-18 07:00:43,0.00,0.30,0.00,22.98,26.82,29.61,9.51,40.71,1009.54,2039.99,3350.99,3254.96,3497.96,500.16,493.49,30.01,0000 0000 0000 0000 000000
2014-09-18 07:05:44,0.00,0.30,0.00,22.99,26.80,29.52,9.49,40.73,1009.61,2040.00,3350.99,3254.98,3497.98,500.21,493.42,30.05,0000 0000 0000 0000 000000
2014-09-18 07:10:45,-0.00,0.30,0.00,22.96,26.80,29.49,9.55,40.66,1009.55,2040.02,3351.00,3254.99,3497.99,500.04,493.34,30.10,0000 0000 0000 0000 000000
2014-09-18 07:15:46,0.00,0.30,0.00,22.96,26.78,29.50,9.46,40.78,1009.56,2040.01,3351.00,3254.99,3497.99,499.71,493.12,30.14,0000 0000 0000 0000 000000
2014-09-18 07:20:47,0.01,0.30,0.00,22.94,26.77,29.48,9.50,40.73,1009.63,2040.04,3351.00,3254.99,3497.99,500.01,493.36,30.18,0000 0000 0000 0000 000000
2014-09-18 07:25:48,0.00,0.30,0.00,22.95,26.77,29.49,9.54,40.79,1009.65,2040.06,3351.00,3254.99,3497.99,500.02,493.50,30.22,0000 0000 0000 0000 000000
2014-09-18 07:30:49,-0.00,0.30,0.00,22.97,26.75,29.44,9.43,40.58,1009.76,2040.05,3350.99,3254.99,3497.98,499.88,493.33,30.26,0000 0000 0000 0000 000000
2014-09-18 07:35:50,0.02,0.30,0.00,22.96,26.75,29.41,9.48,40.66,1009.78,2040.18,3350.99,3254.99,3497.97,500.06,493.43,30.31,0000 0000 0000 0000 000000
2014-09-18 07:40:51,0.01,0.30,0.00,22.95,26.74,29.38,9.52,40.65,1009.78,2040.32,3350.98,3254.99,3497.98,500.26,493.58,30.35,0000 0000 0000 0000 000000
2014-09-18 07:45:52,-0.00,0.30,0.00,22.95,26.72,29.38,9.55,40.82,1009.78,2040.27,3350.96,3254.99,3497.96,499.86,493.26,30.39,0000 0000 0000 0000 000000
2014-09-18 07:50:54,0.04,0.30,0.00,22.98,26.72,29.38,9.48,40.71,1009.78,2040.56,3350.88,3254.99,3497.90,499.71,492.94,30.43,0000 0000 0000 0000 000000
2014-09-18 07:55:55,0.02,0.30,0.00,22.92,26.71,29.36,9.47,40.65,1009.78,2040.75,3350.56,3255.00,3497.61,499.63,493.12,30.47,0000 0000 0000 0000 000000
2014-09-18 08:00:56,0.02,0.30,0.00,22.91,26.70,29.35,9.52,40.74,1009.76,2040.89,3350.43,3255.00,3497.49,500.00,493.50,30.52,0000 0000 0000 0000 000000
2014-09-18 08:05:57,0.01,0.30,0.00,22.91,26.70,29.33,9.55,40.88,1009.77,2040.93,3350.27,3255.00,3497.29,500.04,493.46,30.56,0000 0000 0000 0000 000000
2014-09-18 08:10:59,0.00,0.30,0.00,22.92,26.69,29.32,9.52,40.59,1009.78,2040.96,3350.03,3255.00,3497.06,500.28,493.85,30.60,0000 0000 0000 0000 000000
2014-09-18 08:16:00,-0.00,0.30,0.00,22.95,26.67,29.29,9.56,40.57,1009.78,2040.97,3350.03,3255.01,3497.10,500.32,493.74,30.64,0000 0000 0000 0000 000000
2014-09-18 08:21:01,0.00,0.30,0.00,22.92,26.67,29.26,9.50,40.46,1009.78,2040.99,3350.01,3255.00,3497.05,500.02,493.54,30.68,0000 0000 0000 0000 000000
2014-09-18 08:26:02,0.00,0.30,0.00,22.88,26.66,29.26,9.60,40.63,1009.78,2040.99,3350.00,3255.00,3497.02,500.10,493.83,30.72,0000 0000 0000 0000 000000
2014-09-18 08:31:03,-0.00,0.30,0.00,22.90,26.65,29.25,9.58,40.58,1009.78,2040.98,3350.00,3255.00,3497.00,499.98,493.52,30.77,0000 0000 0000 0000 000000
2014-09-18 08:36:05,0.00,0.30,0.00,22.89,26.65,29.25,9.50,40.54,1009.78,2040.98,3349.99,3255.00,3497.00,500.15,493.86,30.81,0000 0000 0000 0000 000000
2014-09-18 08:41:06,0.00,0.30,0.00,22.92,26.64,29.24,9.49,40.67,1009.78,2040.99,3349.98,3255.00,3497.00,499.78,493.37,30.85,0000 0000 0000 0000 000000
2014-09-18 08:46:07,0.00,0.30,0.00,22.91,26.62,29.24,9.52,40.36,1009.78,2040.98,3349.96,3255.00,3496.98,500.05,493.62,30.89,0000 0000 0000 0000 000000
2014-09-18 08:51:08,0.00,0.30,0.00,22.89,26.62,29.23,9.54,40.51,1009.78,2040.99,3349.98,3255.00,3496.98,500.07,493.45,30.93,0000 0000 0000 0000 000000
2014-09-18 08:56:09,0.00,0.30,0.00,22.87,26.62,29.22,9.47,40.58,1009.77,2040.99,3349.89,3255.00,3496.96,500.05,493.75,30.98,0000 0000 0000 0000 000000
2014-09-18 09:01:10,-0.00,0.30,0.00,22.89,26.61,29.21,9.51,40.61,1009.74,2040.99,3349.91,3255.00,3496.96,500.28,493.79,31.02,0000 0000 0000 0000 000000
2014-09-18 09:06:11,0.00,0.30,0.00,22.95,26.60,29.20,9.45,40.31,1009.66,2040.99,3349.92,3255.01,3496.97,499.81,493.10,31.06,0000 0000 0000 0000 000000
2014-09-18 09:11:12,0.01,0.30,0.00,22.93,26.60,29.23,9.41,40.38,1009.69,2040.99,3349.57,3255.00,3496.92,499.68,493.22,31.10,0000 0000 0000 0000 000000
2014-09-18 09:16:13,0.00,0.30,0.00,22.88,26.60,29.22,9.52,40.57,1009.76,2040.99,3349.35,3255.00,3496.79,499.83,493.55,31.14,0000 0000 0000 0000 000000
2014-09-18 09:21:15,-0.00,0.30,0.00,22.90,26.58,29.16,9.47,40.38,1009.77,2040.99,3349.36,3255.00,3496.73,499.72,493.22,31.19,0000 0000 0000 0000 000000
2014-09-18 09:26:16,0.00,0.30,0.00,22.90,26.57,29.15,9.47,40.43,1009.78,2040.99,3349.34,3255.00,3496.68,500.02,493.60,31.23,0000 0000 0000 0000 000000
2014-09-18 09:31:17,0.00,0.30,0.00,22.93,26.57,29.17,9.53,40.44,1009.78,2040.99,3349.30,3255.00,3496.59,500.00,493.45,31.27,0000 0000 0000 0000 000000
2014-09-18 09:36:18,0.01,0.30,0.00,22.96,26.57,29.19,9.47,40.36,1009.78,2040.99,3349.00,3254.99,3496.04,500.54,493.83,31.31,0000 0000 0000 0000 000000
2014-09-18 09:41:19,0.00,0.30,0.00,22.93,26.57,29.18,9.51,40.54,1009.78,2041.00,3348.98,3254.98,3496.01,499.62,493.05,31.35,0000 0000 0000 0000 000000
2014-09-18 09:46:20,0.00,0.30,0.00,22.88,26.55,29.17,9.53,40.48,1009.78,2041.00,3348.98,3254.98,3496.00,500.16,493.59,31.40,0000 0000 0000 0000 000000
2014-09-18 09:51:22,0.00,0.30,0.00,22.87,26.55,29.14,9.48,40.61,1009.78,2041.00,3348.97,3254.98,3496.00,499.97,493.47,31.44,0000 0000 0000 0000 000000
2014-09-18 09:56:23,0.00,0.30,0.00,22.84,26.55,29.13,9.50,40.54,1009.78,2041.00,3348.96,3254.97,3496.00,499.66,493.37,31.48,0000 0000 0000 0000 000000
2014-09-18 10:01:24,0.00,0.30,0.00,22.91,26.55,29.13,9.50,40.63,1009.78,2041.02,3348.98,3254.98,3496.00,499.66,493.27,31.52,0000 0000 0000 0000 000000
2014-09-18 10:06:25,0.01,0.31,0.00,22.94,26.54,29.15,9.55,40.31,1009.78,2041.05,3348.95,3254.99,3496.00,500.26,493.69,31.56,0000 0000 0000 0000 000000
2014-09-18 10:11:27,0.01,0.31,0.00,22.90,26.52,29.21,9.53,40.38,1009.78,2041.02,3348.49,3254.98,3495.99,500.35,493.85,31.60,0000 0000 0000 0000 000000
2014-09-18 10:16:28,0.00,0.31,0.00,22.86,26.52,29.13,9.46,40.39,1009.78,2041.03,3348.22,3254.95,3495.98,499.94,493.43,31.65,0000 0000 0000 0000 000000
2014-09-18 10:21:29,-0.00,0.31,0.00,22.91,26.52,29.11,9.48,40.40,1009.78,2041.02,3348.10,3254.95,3495.94,500.03,493.51,31.69,0000 0000 0000 0000 000000
2014-09-18 10:26:30,0.01,0.31,0.00,22.94,26.52,29.11,9.47,40.17,1009.78,2041.00,3348.01,3254.77,3495.49,500.68,494.13,31.73,0000 0000 0000 0000 000000
2014-09-18 10:31:31,0.01,0.31,0.00,22.94,26.51,29.13,9.55,40.32,1009.78,2041.02,3348.00,3254.73,3495.15,499.90,493.41,31.77,0000 0000 0000 0000 000000
2014-09-18 10:36:32,0.00,0.31,0.00,22.92,26.50,29.13,9.47,40.39,1009.78,2041.05,3347.99,3254.50,3495.05,499.81,493.44,31.81,0000 0000 0000 0000 000000
2014-09-18 10:41:34,-0.00,0.31,0.00,22.94,26.50,29.12,9.48,40.35,1009.78,2041.02,3347.99,3254.54,3495.02,500.16,493.58,31.86,0000 0000 0000 0000 000000
2014-09-18 10:46:35,0.01,0.31,0.00,22.93,26.50,29.12,9.44,40.26,1009.79,2041.05,3347.97,3254.38,3495.00,499.71,493.20,31.90,0000 0000 0000 0000 000000
2014-09-18 10:51:36,0.00,0.31,0.00,22.92,26.50,29.15,9.58,40.49,1009.78,2041.06,3347.96,3254.48,3495.00,500.04,493.54,31.94,0000 0000 0000 0000 000000
2014-09-18 10:56:37,0.01,0.31,0.00,22.90,26.50,29.09,9.47,40.34,1009.77,2041.05,3347.82,3254.17,3495.00,499.52,493.10,31.98,0000 0000 0000 0000 000000
2014-09-18 11:01:38,0.01,0.31,0.00,22.97,26.49,29.03,9.59,40.36,1009.76,2041.07,3347.87,3254.16,3495.00,500.52,494.02,32.02,0000 0000 0000 0000 000000
2014-09-18 11:06:39,0.00,0.31,0.00,22.94,26.48,29.02,9.49,40.35,1009.68,2041.08,3347.62,3254.15,3494.99,500.04,493.34,32.07,0000 0000 0000 0000 000000
2014-09-18 11:11:40,0.01,0.31,0.00,22.89,26.47,29.03,9.51,40.32,1009.66,2041.05,3347.07,3254.06,3494.81,499.91,493.28,32.11,0000 0000 0000 0000 000000
2014-09-18 11:16:41,0.01,0.31,0.00,22.91,26.47,29.08,9.55,40.41,1009.72,2041.03,3347.01,3254.02,3494.42,500.07,493.51,32.15,0000 0000 0000 0000 000000
2014-09-18 11:21:42,0.00,0.31,0.00,22.93,26.47,29.10,9.51,40.42,1009.67,2041.02,3347.00,3254.00,3494.09,500.32,493.79,32.19,0000 0000 0000 0000 000000
2014-09-18 11:26:43,0.00,0.31,0.00,22.91,26.47,29.11,9.51,40.51,1009.37,2041.02,3346.98,3254.00,3494.01,499.53,493.01,32.23,0000 0000 0000 0000 000000
2014-09-18 11:31:44,0.00,0.31,0.00,22.92,26.47,29.09,9.48,40.23,1009.58,2041.02,3346.96,3254.00,3494.00,499.77,493.35,32.27,0000 0000 0000 0000 000000
2014-09-18 11:36:45,0.00,0.31,0.00,22.94,26.46,29.03,9.58,40.26,1009.60,2041.04,3346.95,3254.00,3493.99,499.93,493.30,32.31,0000 0000 0000 0000 000000
2014-09-18 11:41:46,-0.00,0.31,0.00,22.94,26.45,29.03,9.52,40.53,1009.58,2041.03,3346.93,3254.00,3493.99,500.57,493.78,32.36,0000 0000 0000 0000 000000
2014-09-18 11:46:47,0.00,0.31,0.00,22.89,26.45,28.99,9.53,40.34,1009.42,2041.08,3346.85,3253.99,3493.99,499.86,493.12,32.40,0000 0000 0000 0000 000000
2014-09-18 11:51:48,0.01,0.31,0.00,22.85,26.45,29.00,9.51,40.38,1009.47,2041.05,3346.31,3253.99,3493.95,500.20,493.59,32.44,0000 0000 0000 0000 000000
2014-09-18 11:56:49,0.01,0.31,0.00,22.88,26.45,29.00,9.56,40.52,1009.33,2041.03,3346.06,3253.98,3493.65,500.00,493.32,32.48,0000 0000 0000 0000 000000
2014-09-18 12:01:50,0.00,0.31,0.00,22.86,26.44,29.00,9.49,40.43,1009.30,2041.04,3346.01,3253.96,3493.47,500.04,493.44,32.52,0000 0000 0000 0000 000000
2014-09-18 12:06:51,0.00,0.31,0.00,22.87,26.43,28.99,9.49,40.43,1009.29,2041.03,3346.01,3253.97,3493.18,500.18,493.40,32.56,0000 0000 0000 0000 000000
2014-09-18 12:11:52,0.00,0.31,0.00,22.86,26.42,29.01,9.48,40.36,1009.29,2041.08,3346.00,3253.98,3493.10,499.94,493.32,32.61,0000 0000 0000 0000 000000
2014-09-18 12:16:53,-0.00,0.31,0.00,22.89,26.42,28.97,9.47,40.33,1009.29,2041.07,3346.00,3253.97,3493.02,500.31,493.63,32.65,0000 0000 0000 0000 000000
2014-09-18 12:21:55,0.01,0.31,0.00,22.94,26.42,28.93,9.51,40.34,1009.29,2041.11,3346.00,3253.95,3493.00,499.92,493.15,32.69,0000 0000 0000 0000 000000
2014-09-18 12:26:56,0.00,0.31,0.00,22.87,26.42,28.92,9.48,40.28,1009.29,2041.17,3346.00,3253.96,3493.00,499.77,493.12,32.73,0000 0000 0000 0000 000000
2014-09-18 12:31:57,0.00,0.31,0.00,22.92,26.42,28.94,9.52,40.34,1009.27,2041.13,3345.97,3253.90,3493.00,500.16,493.56,32.77,0000 0000 0000 0000 000000
2014-09-18 12:36:59,-0.00,0.31,0.00,22.89,26.41,28.93,9.51,40.49,1009.18,2041.10,3345.95,3253.82,3492.99,500.29,493.44,32.81,0000 0000 0000 0000 000000
2014-09-18 12:41:59,0.02,0.31,0.00,22.90,26.40,28.95,9.52,40.51,1009.02,2041.10,3345.52,3253.55,3492.92,499.87,493.09,32.86,0000 0000 0000 0000 000000
2014-09-18 12:47:01,0.01,0.31,0.00,22.87,26.40,28.94,9.53,40.42,1008.83,2041.15,3345.22,3253.52,3492.79,500.23,493.43,32.90,0000 0000 0000 0000 000000
2014-09-18 12:52:02,0.01,0.31,0.00,22.87,26.40,28.97,9.55,40.61,1008.82,2041.21,3345.18,3253.52,3492.69,500.10,493.25,32.94,0000 0000 0000 0000 000000
2014-09-18 12:57:03,0.02,0.31,0.00,22.90,26.40,28.97,9.45,40.56,1008.80,2041.46,3345.21,3253.64,3492.65,499.83,492.88,32.98,0000 0000 0000 0000 000000
2014-09-18 13:02:05,0.02,0.32,0.00,22.85,26.40,28.90,9.48,40.57,1008.80,2041.60,3345.12,3253.63,3492.41,499.92,493.06,33.02,0000 0000 0000 0000 000000